When you browse on this site, cookies collect data to enhance your experience and personalize the content and advertising you see.
Visit our Privacy Policy to learn more. By continuing to use the site, you agree to this use of cookies and data.
  • In Spain
  • List of Countries
  • For 7 days
  • Water Temperature
  • Weather Map
  • Weather Widgets
  • user-avatar
    Login

    Hourly Weather Shkoder

    Today, 23 October, Wednesday

    Time Temperature Precipitation Wind Pressure Humidity
    00:00 +19°C° 0 mm 2 mps 744 mmHg 43%
    01:00 +19°C° 0 mm 2 mps 743 mmHg 44%
    02:00 +18°C° 0 mm 2 mps 743 mmHg 44%
    03:00 +18°C° 0 mm 2 mps 743 mmHg 44%
    04:00 +18°C° 0 mm 2 mps 743 mmHg 44%
    05:00 +18°C° 0 mm 2 mps 743 mmHg 45%
    06:00 +18°C° 0 mm 2 mps 743 mmHg 45%
    07:00 +18°C° 0 mm 2 mps 743 mmHg 46%
    08:00 +22°C° 0 mm 1 mps 743 mmHg 42%
    09:00 +24°C° 0 mm 1 mps 743 mmHg 38%
    10:00 +26°C° 0 mm 1 mps 743 mmHg 34%
    11:00 +27°C° 0 mm 1 mps 743 mmHg 32%
    12:00 +28°C° 0 mm 1 mps 743 mmHg 31%
    13:00 +28°C° 0 mm 1 mps 742 mmHg 29%
    14:00 +27°C° 0 mm 1 mps 742 mmHg 35%
    15:00 +26°C° 0 mm 1 mps 742 mmHg 41%
    16:00 +25°C° 0 mm 1 mps 742 mmHg 46%
    17:00 +23°C° 0 mm 1 mps 742 mmHg 48%
    18:00 +22°C° 0 mm 1 mps 742 mmHg 50%
    19:00 +21°C° 0 mm 1 mps 742 mmHg 52%
    20:00 +20°C° 0 mm 1 mps 742 mmHg 51%
    21:00 +20°C° 0 mm 1 mps 742 mmHg 50%
    22:00 +20°C° 0 mm 1 mps 743 mmHg 49%
    23:00 +20°C° 0 mm 1 mps 742 mmHg 49%

    Tomorrow, 24 October, Thursday

    Time Temperature Precipitation Wind Pressure Humidity
    00:00 +19°C° 0 mm 1 mps 742 mmHg 48%
    01:00 +19°C° 0 mm 1 mps 742 mmHg 48%
    02:00 +19°C° 0 mm 1 mps 742 mmHg 48%
    03:00 +19°C° 0 mm 1 mps 742 mmHg 48%
    04:00 +18°C° 0 mm 1 mps 741 mmHg 48%
    05:00 +18°C° 0 mm 1 mps 741 mmHg 47%
    06:00 +19°C° 0 mm 1 mps 741 mmHg 47%
    07:00 +19°C° 0 mm 1 mps 741 mmHg 47%
    08:00 +21°C° 0 mm 1 mps 741 mmHg 42%
    09:00 +23°C° 0 mm 1 mps 741 mmHg 38%
    10:00 +26°C° 0 mm 1 mps 741 mmHg 34%
    11:00 +26°C° 0 mm 1 mps 741 mmHg 33%
    12:00 +27°C° 0 mm 1 mps 741 mmHg 32%
    13:00 +27°C° 0 mm 1 mps 740 mmHg 31%
    14:00 +26°C° 0 mm 1 mps 740 mmHg 37%
    15:00 +25°C° 0 mm 1 mps 740 mmHg 42%
    16:00 +24°C° 0 mm 1 mps 739 mmHg 47%
    17:00 +22°C° 0 mm 1 mps 740 mmHg 50%
    18:00 +19°C° 0 mm 0 mps 740 mmHg 53%
    19:00 +18°C° 0 mm 0 mps 740 mmHg 56%
    20:00 +19°C° 0 mm 1 mps 740 mmHg 55%
    21:00 +19°C° 0 mm 1 mps 740 mmHg 54%
    22:00 +19°C° 0 mm 1 mps 741 mmHg 54%
    23:00 +18°C° 0 mm 1 mps 741 mmHg 52%

    Day after tomorrow, 25 October, Friday

    Time Temperature Precipitation Wind Pressure Humidity
    00:00 +18°C° 0 mm 1 mps 741 mmHg 51%
    01:00 +18°C° 0 mm 1 mps 740 mmHg 49%
    02:00 +18°C° 0 mm 1 mps 740 mmHg 49%
    03:00 +18°C° 0 mm 1 mps 740 mmHg 48%
    04:00 +16°C° 0 mm 1 mps 740 mmHg 48%
    05:00 +18°C° 0 mm 1 mps 740 mmHg 48%
    06:00 +18°C° 0 mm 1 mps 741 mmHg 48%
    07:00 +18°C° 0 mm 1 mps 741 mmHg 48%
    08:00 +20°C° 0 mm 1 mps 741 mmHg 43%
    09:00 +23°C° 0 mm 1 mps 741 mmHg 38%
    10:00 +25°C° 0 mm 1 mps 742 mmHg 34%
    11:00 +26°C° 0 mm 1 mps 741 mmHg 33%
    12:00 +26°C° 0 mm 1 mps 741 mmHg 32%
    13:00 +27°C° 0 mm 1 mps 741 mmHg 31%
    14:00 +26°C° 0 mm 1 mps 741 mmHg 36%
    15:00 +25°C° 0 mm 1 mps 741 mmHg 41%
    16:00 +23°C° 0 mm 1 mps 741 mmHg 47%
    17:00 +22°C° 0 mm 1 mps 742 mmHg 49%
    18:00 +21°C° 0 mm 1 mps 742 mmHg 50%
    19:00 +20°C° 0 mm 1 mps 742 mmHg 52%
    20:00 +19°C° 0 mm 1 mps 742 mmHg 51%
    21:00 +18°C° 0 mm 2 mps 743 mmHg 49%
    22:00 +18°C° 0 mm 2 mps 743 mmHg 48%
    23:00 +18°C° 0 mm 2 mps 743 mmHg 47%

    26 October, Saturday

    Time Temperature Precipitation Wind Pressure Humidity
    00:00 +17°C° 0 mm 2 mps 743 mmHg 46%
    01:00 +17°C° 0 mm 2 mps 743 mmHg 45%
    02:00 +17°C° 0 mm 2 mps 743 mmHg 45%
    03:00 +17°C° 0 mm 2 mps 743 mmHg 45%
    04:00 +16°C° 0 mm 2 mps 743 mmHg 45%
    05:00 +16°C° 0 mm 2 mps 743 mmHg 45%
    06:00 +17°C° 0 mm 2 mps 743 mmHg 46%
    07:00 +17°C° 0 mm 2 mps 743 mmHg 46%
    08:00 +19°C° 0 mm 2 mps 743 mmHg 42%
    09:00 +23°C° 0 mm 1 mps 744 mmHg 37%
    10:00 +25°C° 0 mm 1 mps 744 mmHg 33%
    11:00 +26°C° 0 mm 1 mps 744 mmHg 32%
    12:00 +26°C° 0 mm 1 mps 743 mmHg 30%
    13:00 +27°C° 0 mm 1 mps 743 mmHg 29%
    14:00 +26°C° 0 mm 1 mps 743 mmHg 35%
    15:00 +25°C° 0 mm 1 mps 743 mmHg 41%
    16:00 +23°C° 0 mm 1 mps 743 mmHg 46%
    17:00 +22°C° 0 mm 1 mps 743 mmHg 48%
    18:00 +21°C° 0 mm 1 mps 743 mmHg 51%
    19:00 +19°C° 0 mm 1 mps 743 mmHg 53%
    20:00 +19°C° 0 mm 1 mps 743 mmHg 52%
    21:00 +19°C° 0 mm 1 mps 743 mmHg 51%
    22:00 +19°C° 0 mm 1 mps 743 mmHg 50%
    23:00 +18°C° 0 mm 1 mps 743 mmHg 49%

    27 October, Sunday

    Time Temperature Precipitation Wind Pressure Humidity
    00:00 +18°C° 0 mm 1 mps 743 mmHg 49%
    01:00 +18°C° 0 mm 1 mps 743 mmHg 48%
    02:00 +18°C° 0 mm 1 mps 743 mmHg 48%
    03:00 +16°C° 0 mm 1 mps 743 mmHg 48%
    04:00 +16°C° 0 mm 1 mps 743 mmHg 48%
    05:00 +16°C° 0 mm 1 mps 743 mmHg 48%
    06:00 +18°C° 0 mm 1 mps 743 mmHg 48%
    07:00 +18°C° 0 mm 1 mps 743 mmHg 48%
    08:00 +20°C° 0 mm 1 mps 743 mmHg 43%
    09:00 +22°C° 0 mm 1 mps 743 mmHg 38%
    10:00 +25°C° 0 mm 1 mps 743 mmHg 34%
    11:00 +25°C° 0 mm 1 mps 743 mmHg 33%
    12:00 +26°C° 0 mm 1 mps 742 mmHg 33%
    13:00 +26°C° 0 mm 2 mps 742 mmHg 33%
    14:00 +25°C° 0 mm 1 mps 742 mmHg 38%
    15:00 +24°C° 0 mm 1 mps 741 mmHg 44%
    16:00 +23°C° 0 mm 1 mps 741 mmHg 50%
    17:00 +21°C° 0 mm 1 mps 741 mmHg 53%
    18:00 +20°C° 0 mm 1 mps 742 mmHg 55%
    19:00 +19°C° 0 mm 1 mps 742 mmHg 57%
    20:00 +19°C° 0 mm 1 mps 742 mmHg 55%
    21:00 +18°C° 0 mm 1 mps 742 mmHg 53%
    22:00 +18°C° 0 mm 1 mps 742 mmHg 51%
    23:00 +18°C° 0 mm 1 mps 742 mmHg 50%

    28 October, Monday

    Time Temperature Precipitation Wind Pressure Humidity
    00:00 +18°C° 0 mm 1 mps 742 mmHg 49%
    01:00 +16°C° 0 mm 1 mps 742 mmHg 48%
    02:00 +16°C° 0 mm 1 mps 742 mmHg 47%
    03:00 +16°C° 0 mm 1 mps 742 mmHg 47%
    04:00 +15°C° 0 mm 1 mps 741 mmHg 46%
    05:00 +16°C° 0 mm 1 mps 741 mmHg 46%
    06:00 +16°C° 0 mm 1 mps 741 mmHg 45%
    07:00 +16°C° 0 mm 1 mps 741 mmHg 45%
    08:00 +19°C° 0 mm 1 mps 741 mmHg 40%
    09:00 +22°C° 0 mm 1 mps 741 mmHg 36%
    10:00 +24°C° 0 mm 1 mps 741 mmHg 32%
    11:00 +24°C° 0 mm 1 mps 741 mmHg 32%
    12:00 +25°C° 0 mm 1 mps 741 mmHg 32%
    13:00 +25°C° 0 mm 2 mps 741 mmHg 32%
    14:00 +24°C° 0 mm 1 mps 740 mmHg 38%
    15:00 +23°C° 0 mm 1 mps 740 mmHg 44%
    16:00 +22°C° 0 mm 1 mps 740 mmHg 50%
    17:00 +20°C° 0 mm 1 mps 740 mmHg 53%
    18:00 +19°C° 0 mm 1 mps 740 mmHg 55%
    19:00 +18°C° 0 mm 1 mps 740 mmHg 58%
    20:00 +18°C° 0 mm 1 mps 740 mmHg 57%
    21:00 +18°C° 0 mm 1 mps 741 mmHg 57%
    22:00 +16°C° 0 mm 0 mps 741 mmHg 56%
    23:00 +15°C° 0 mm 0 mps 741 mmHg 56%

    29 October, Tuesday

    Time Temperature Precipitation Wind Pressure Humidity
    00:00 +15°C° 0 mm 0 mps 741 mmHg 56%
    01:00 +15°C° 0 mm 0 mps 741 mmHg 56%
    02:00 +15°C° 0 mm 0 mps 741 mmHg 55%
    03:00 +16°C° 0 mm 1 mps 741 mmHg 55%
    04:00 +15°C° 0 mm 1 mps 740 mmHg 55%
    05:00 +16°C° 0 mm 1 mps 741 mmHg 55%
    06:00 +16°C° 0 mm 1 mps 741 mmHg 54%
    07:00 +16°C° 0 mm 1 mps 741 mmHg 54%
    08:00 +19°C° 0 mm 1 mps 741 mmHg 50%
    09:00 +20°C° 0 mm 1 mps 741 mmHg 46%
    10:00 +22°C° 0 mm 1 mps 741 mmHg 42%
    11:00 +22°C° 0 mm 1 mps 741 mmHg 41%
    12:00 +23°C° 0 mm 1 mps 741 mmHg 40%
    13:00 +23°C° 0 mm 1 mps 741 mmHg 39%
    14:00 +23°C° 0 mm 1 mps 741 mmHg 44%
    15:00 +22°C° 0 mm 1 mps 740 mmHg 49%
    16:00 +21°C° 0 mm 1 mps 740 mmHg 54%
    17:00 +20°C° 0 mm 1 mps 741 mmHg 57%
    18:00 +19°C° 0 mm 1 mps 741 mmHg 59%
    19:00 +18°C° 0 mm 1 mps 742 mmHg 62%
    20:00 +18°C° 0 mm 1 mps 742 mmHg 64%
    21:00 +16°C° 0 mm 2 mps 743 mmHg 66%
    22:00 +15°C° 0 mm 2 mps 743 mmHg 69%
    23:00 +14°C° 0 mm 3 mps 743 mmHg 70%
    Show more